map of CRG home
CRG - Airport
Location
City:  Jacksonville, Florida, United States
Name:Jacksonville Executive Airport at Craig
ICAO:KCRG
IATA:CRG
FAA LID:CRG

Details
Type:Airport (Airfield)
Use:Public/Civil
Latitude:3020'11"N (30.336333)
Longitude:8130'52"W (-81.514443)
Datum:WGS 1984
Elevation:40 ft (12 m)
Variation:6.57W (WMM2015 magnetic declination)
-0.09 annual change
Runways:2
Longest:4008 × 100 ft (1222 × 30.5 m), paved

Time
Time Zone:UTC-5 (DST-4)
Local Time:

Weather
METAR:KCRG 250553Z AUTO 18005KT 10SM FEW050 FEW060 BKN095 22/19 A3017 RMK AO2 SLP214 T02170189 10228 20217 50007 $
TAF:KCRG 250531Z 2506/2606 21004KT P6SM SCT040 BKN070
FM251400 20010KT P6SM SCT030
FM252100 17008KT P6SM FEW040

Related Locations
Nearby:
Farthest:USL: 11492 mi / 18494 km
Useless Loop, WA, AU

Find:

   beyond  
but within

Other Information
Maps:
NOTAMs:
Links:
Sources:

  
flag of United States
flag of Florida
  

Airport Diagram

Airport diagram for CRG

Airport diagram PDF

Sectional Chart

Flight Planning
at skyvector.com

Satellite Image

Google Maps Satellite view

 

Copyright © 2004-2018 Karl L. Swartz. All rights reserved.
The Great Circle Mapper name and logo are trademarks of the Great Circle Mapper.
All other trademarks mentioned herein belong to their respective owners.
Please see credits for attibutions and further copyright information.

  Follow gcmap on Facebook Follow gcmap on Twitter Follow gcmap on Google+ GCmap on LinkedIn

hCard Microformat

Geo Microformat